279  
NZUS93 KARX 181959  
HRRWXR  
 
CURRENT HOURLY OBSERVATIONS ACROSS  
MUCH OF THE UPPER MISSISSIPPI VALLEY  
NATIONAL WEATHER SERVICE LA CROSSE WI  
300 PM CDT WED SEP 18 2019  
 
   
..SOUTHEAST MINNESOTA
 
 
 
CITY SKY/WX TMP DP RH WIND PRES REMARKS  
ROCHESTER FAIR 76 64 66 S17G25 29.95F  
ROCHESTER/MAYO FAIR 76 64 67 S16G24 29.95F  
WINONA FAIR 77 66 69 SW5 29.96R  
AUSTIN FAIR 75 63 64 S12G17 29.96F  
ALBERT LEA FAIR 75 66 73 S10G17 29.95F  
DODGE CENTER FAIR 77 64 65 S23G29 29.95S  
PRESTON FAIR 71 64 78 S7 29.99F  
OWATONNA FAIR 77 66 69 S22G29 29.92S  
FARIBAULT NOT AVBL  

 
   
..ELSEWHERE IN MINNESOTA
 
 
 
CITY SKY/WX TMP DP RH WIND PRES REMARKS  
MINNEAPOLIS PTSUNNY 81 67 62 S18G31 29.86F  
INTNL FALLS PTSUNNY 73 70 90 S6 29.66F FOG  
DULUTH PTSUNNY 80 64 58 SW29G39 29.79F  
RED WING FAIR 81 57 44 S13G22 29.88F  
REDWOOD FALLS SUNNY 82 60 47 W13 29.86S  
MANKATO PTSUNNY 79 71 76 S16G29 29.89F  
WORTHINGTON SUNNY 79 59 50 SW14 29.94R  
FAIRMONT PTSUNNY 80 71 74 S18G24 29.91F  

 
   
..SOUTHWEST WISCONSIN
 
 
 
CITY SKY/WX TMP DP RH WIND PRES REMARKS  
LA CROSSE FAIR 83 69 62 S16 29.95F  
PRAIRIE DU CHI FAIR 80 67 64 S9 29.99F  
BOSCOBEL FAIR 83 70 64 S10G20 29.98F  
LONE ROCK FAIR 82 69 64 S13G20 30.00F  
PLATTEVILLE FAIR 83 71 68 S12 30.05F  
FORT MC COY FAIR 77 67 72 S5 29.97F  
MAUSTON-NEW LI FAIR 79 70 73 S9G23 29.96F  
VIROQUA FAIR 79 72 80 S13G18 30.00S  
WIS DELLS FAIR 81 66 61 S10 30.02F  

 
   
..ELSEWHERE IN WISCONSIN
 
 
 
CITY SKY/WX TMP DP RH WIND PRES REMARKS  
MILWAUKEE FAIR 76 64 66 SE15 30.08F  
MADISON FAIR 81 66 60 S14 30.03F  
GREEN BAY FAIR 80 63 55 S16 30.02F  
EAU CLAIRE NOT AVBL  
BLACK RVR FLS FAIR 80 68 66 SW9 29.96F  
MEDFORD PTSUNNY 73 67 79 S12 29.98F  
WAUSAU FAIR 76 67 73 S14 29.95F  
WIS RAPIDS NOT AVBL  
MARSHFIELD FAIR 76 68 76 S13G21 29.98R  
RICE LAKE FAIR 79 66 65 S13 29.90F  

 
   
..NORTHEAST IOWA
 
 
 
CITY SKY/WX TMP DP RH WIND PRES REMARKS  
WATERLOO LGT RAIN 72 67 84 S17G25 29.99F  
DUBUQUE FAIR 81 70 69 S13 30.05F  
DECORAH FAIR 77 70 78 S5G15 29.97R  
MASON CITY MOSUNNY 72 65 78 S16G28 29.97F  
CHARLES CITY FAIR 72 70 94 S9 29.99F  
OELWEIN SUNNY 75 75 100 S16 29.99F FOG  

 
   
..ELSEWHERE IN IOWA
 
 
 
CITY SKY/WX TMP DP RH WIND PRES REMARKS  
DES MOINES LGT RAIN 86 70 58 S6 29.96F HX 90  
IOWA CITY FAIR 87 71 58 SE10 30.02F HX 93  
FORT DODGE PTSUNNY 83 72 69 S9 29.96S  
MARSHALLTOWN SUNNY 70 68 93 E9 29.99F  
CEDAR RAPIDS FAIR 85 70 60 SE10 30.01F  

 
   
..NORTHERN ILLINOIS
 
 
 
CITY SKY/WX TMP DP RH WIND PRES REMARKS  
CHICAGO-OHARE PTSUNNY 81 62 52 S9 30.08F  
CHICAGO-MIDWAY PTSUNNY 82 60 47 S8 30.10F  
MOLINE FAIR 86 69 56 SE12 30.03F HX 90  
ROCKFORD FAIR 81 68 64 SE13 30.09F  
PEORIA FAIR 84 66 54 VRB6 30.06F  

 
 
NOTE: "FAIR" INDICATES FEW OR NO CLOUDS BELOW 12,000 FEET WITH NO  
SIGNIFICANT WEATHER AND/OR OBSTRUCTIONS TO VISIBILITY. WIND  
SPEEDS ARE IN MILES-PER-HOUR.  
 
 
CLICK HERE TO GO TO PREVIOUS BULLETINS.

The Nexlab WI Page
The Nexlab IA Page
The Nexlab MN Page Main Text Page